Location: Durkee
(44.1305°N, 107.9134°W)
Time: 02:52:22
(UTC+00:00)

ISS - Visible Passes

Search period start: 19 January 2022 00:00
Search period end: 29 January 2022 00:00
Orbit: 413 x 423 km, 51.6° (Epoch: 18 January)

Date Brightness Start Highest point End Pass type
(mag) Time Alt. Az. Time Alt. Az. Time Alt. Az.
19 Jan -2.0 00:58:04 10° S 01:00:31 19° SE 01:02:14 14° E visible
19 Jan -1.4 02:33:42 10° WSW 02:35:11 24° WSW 02:35:11 24° WSW visible
20 Jan -3.9 01:45:43 10° SW 01:49:03 84° SSE 01:49:25 68° ENE visible
21 Jan -3.4 00:57:53 10° SW 01:01:07 50° SE 01:03:34 16° ENE visible
21 Jan -1.4 02:34:56 10° W 02:36:31 22° WNW 02:36:31 22° WNW visible
22 Jan -3.0 01:46:43 10° W 01:49:56 44° NNW 01:50:36 38° NNE visible
23 Jan -3.5 00:58:34 10° WSW 01:01:52 65° NNW 01:04:39 14° NE visible
23 Jan -1.1 02:36:19 10° WNW 02:37:35 17° NW 02:37:35 17° NW visible
24 Jan -2.3 01:48:00 10° WNW 01:50:56 27° NNW 01:51:34 25° N visible
25 Jan -2.6 00:59:42 10° W 01:02:47 34° NNW 01:05:32 12° NE visible
25 Jan -1.0 02:37:32 10° NW 02:38:28 15° NW 02:38:28 15° NW visible
26 Jan -2.1 01:49:17 10° WNW 01:51:59 22° N 01:52:24 21° N visible
27 Jan -2.1 01:00:59 10° WNW 01:03:45 24° N 01:06:20 11° NE visible
27 Jan -1.0 02:38:25 10° NW 02:39:16 15° NW 02:39:16 15° NW visible
28 Jan -2.2 01:50:18 10° NW 01:53:01 23° N 01:53:12 22° N visible
